Regional Weather Roundup
Issued by NWS

Current Version | Previous Version | Text Only | Print | Product List | Glossary On
Versions: 1 2 3 4 5 6 7 8 9 10 11 12 13 14 15 16 17 18 19 20 21 22 23 24 25 26 27 28 29 30 31 32 33 34 35 36 37 38 39 40 41 42 43 44 45 46 47 48 49 50
000
ASUS44 KFWD 011215
RWRTX
NORTH TEXAS HOURLY WEATHER ROUNDUP
NATIONAL WEATHER SERVICE FORT WORTH TX
700 AM CDT WED OCT 01 2014

NOTE: "FAIR" INDICATES FEW OR NO CLOUDS BELOW 12,000 FEET WITH NO
SIGNIFICANT WEATHER AND/OR OBSTRUCTIONS TO VISIBILITY.

TXZ118-119-011300-
DALLAS/FORT WORTH METROPLEX

CITY           SKY/WX    TMP DP  RH WIND       PRES   REMARKS
DFW AIRPORT    PTCLDY    74  70  87 S10       29.79R
6HR MIN TEMP:  74; 6HR MAX TEMP:  80;

DALLAS LOVE    PTCLDY    73  69  87 S9        29.80R
6HR MIN TEMP:  73; 6HR MAX TEMP:  79;

FTW MEACHAM    CLEAR     75  69  81 S10       29.79R
6HR MIN TEMP:  74; 6HR MAX TEMP:  79;

DAL-EXECUTIVE  MOCLDY    74  70  87 S7        29.79S
6HR MIN TEMP:  74; 6HR MAX TEMP:  79;

FTW-ALLIANCE   CLEAR     71  69  93 S5        29.78R
6HR MIN TEMP:  71; 6HR MAX TEMP:  77;

FTW-NAS-JRB    CLEAR     76  68  76 S9        29.83R
6HR MIN TEMP:  76; 6HR MAX TEMP:  81;

FTW-SPINKS     MOCLDY    73  70  88 S9        29.81R
ARLINGTON      PTCLDY    73  69  87 S8        29.80R
6HR MIN TEMP:  73; 6HR MAX TEMP:  78;

GRAND PRAIRIE  CLEAR     73  68  83 MISG      29.80S
ADDISON        PTCLDY    73  68  83 SE10      29.80R
MESQUITE       CLOUDY    73  72  94 SE12      29.81S
LANCASTER      CLOUDY    73  68  86 S6        29.81F
6HR MIN TEMP:  71; 6HR MAX TEMP:  75;

$$

TXZ091>094-102>105-117-120-121-131>134-011300-
NORTH CENTRAL TEXAS

CITY           SKY/WX    TMP DP  RH WIND       PRES   REMARKS
SHRMAN/DENISON CLEAR     72  68  87 SE7       29.81S FOG
6HR MIN TEMP:  72; 6HR MAX TEMP:  77;

GAINESVILLE    CLEAR     70  68  92 SE7       29.81S
6HR MIN TEMP:  70; 6HR MAX TEMP:  73;

BOWIE          PTCLDY    71  67  87 SE8       29.79S
6HR MIN TEMP:  71; 6HR MAX TEMP:  74;

BRIDGEPORT     CLEAR     73  65  78 S6        29.80S
6HR MIN TEMP:  71; 6HR MAX TEMP:  76;

DECATUR        CLEAR     72  68  87 S8        29.80R
6HR MIN TEMP:  72; 6HR MAX TEMP:  76;

DENTON         CLEAR     72  68  87 S8        29.79R
6HR MIN TEMP:  72; 6HR MAX TEMP:  77;

MCKINNEY       CLEAR     72  69  90 SE10      29.80R
6HR MIN TEMP:  72; 6HR MAX TEMP:  75;

GREENVILLE     MOCLDY    73  70  88 S9        29.81F
ROCKWALL       MOCLDY    73  71  95 S14G20    29.80R
6HR MIN TEMP:  72; 6HR MAX TEMP:  76;

TERRELL        CLOUDY    75  72  90 S9        29.81F
6HR MIN TEMP:  73; 6HR MAX TEMP:  77;

WAXAHACHIE     CLOUDY    73  72  97 S12G17    29.81F
6HR MIN TEMP:  71; 6HR MAX TEMP:  76;

CLEBURNE       CLOUDY    72  72 100 S10       29.82S
GRANBURY       CLEAR     75  69  82 S8        29.81R
6HR MIN TEMP:  73; 6HR MAX TEMP:  78;

$$

TXZ083>090-098>101-113>116-127>130-139>142-154-155-011300-
WESTERN NORTH TEXAS

CITY           SKY/WX    TMP DP  RH WIND       PRES   REMARKS
WICHITA FALLS  CLEAR     72  64  76 S12       29.74R
6HR MIN TEMP:  72; 6HR MAX TEMP:  78; 6HR PCP:  0.01;

WF-KICKAPOO    CLEAR     71  64  78 S9        29.76R
6HR MIN TEMP:  71; 6HR MAX TEMP:  76; 6HR PCP:  0.01;

VERNON         CLEAR     72  61  68 S9        29.74R
ABILENE        PTCLDY    73  62  68 S12       29.80R
6HR MIN TEMP:  73; 6HR MAX TEMP:  77;

ABILENE-DYESS  MOCLDY    72  61  69 S10       29.78R
6HR MIN TEMP:  72; 6HR MAX TEMP:  77;

BRECKENRIDGE   CLEAR     73  63  70 S8        29.78R
6HR MIN TEMP:  73; 6HR MAX TEMP:  78;

GRAHAM         CLEAR     74  64  69 SE7       29.77R
6HR MIN TEMP:  74; 6HR MAX TEMP:  78;

MINERAL WELLS  CLEAR     68  65  90 SE9       29.78S
6HR MIN TEMP:  68; 6HR MAX TEMP:  73;

STEPHENVILLE   PTCLDY    70  66  89 S7        29.84S
6HR MIN TEMP:  70; 6HR MAX TEMP:  74;

COMANCHE       MOCLDY    72  68  88 S20G25    29.82R
6HR MIN TEMP:  71; 6HR MAX TEMP:  73;

BROWNWOOD      CLOUDY    70  66  88 S6        29.83R
COLEMAN        CLEAR     66  61  82 S3        29.83R
6HR MIN TEMP:  66; 6HR MAX TEMP:  73;

BRADY          CLEAR     70  68  94 SE7       29.82S
$$

TXZ143>147-156>162-174-175-011300-
CENTRAL TEXAS

CITY           SKY/WX    TMP DP  RH WIND       PRES   REMARKS
WACO           CLOUDY    76  70  82 S10       29.81S
6HR MIN TEMP:  74; 6HR MAX TEMP:  77;

WACO-MCGREGOR  CLOUDY    75  66  73 S10       29.82S
6HR MIN TEMP:  73; 6HR MAX TEMP:  75;

HILLSBORO      CLOUDY    75  69  82 S9        29.82R
6HR MIN TEMP:  74; 6HR MAX TEMP:  77;

CORSICANA      CLOUDY    76  71  85 S7        29.83R
6HR MIN TEMP:  73; 6HR MAX TEMP:  76;

MEXIA          CLOUDY    74  73  96 S5        29.81S
6HR MIN TEMP:  71; 6HR MAX TEMP:  74;

HEARNE         CLOUDY    74  73  96 SE5       29.83S
6HR MIN TEMP:  73; 6HR MAX TEMP:  74;

CAMERON        CLOUDY    75  73  93 CALM      29.82S
6HR MIN TEMP:  74; 6HR MAX TEMP:  75;

TEMPLE         CLOUDY    73  66  78 SE9       29.81S
6HR MIN TEMP:  73; 6HR MAX TEMP:  75;

KILLEEN        PTCLDY    73  70  88 SE8       29.82S
KILLEEN-SKYLRK CLOUDY    73  66  78 SE5       29.81S
GATESVILLE     PTCLDY    72  72 100 CALM      29.84R
HAMILTON       CLOUDY    74  70  87 S8        29.84S
6HR MIN TEMP:  71; 6HR MAX TEMP:  74;

LAMPASAS       CLOUDY    76  73  90 S3        29.82S
6HR MIN TEMP:  73; 6HR MAX TEMP:  76;

$$

TXZ095>097-106>112-122>126-135>138-148>153-164>167-011300-
EAST TEXAS

CITY           SKY/WX    TMP DP  RH WIND       PRES   REMARKS
PARIS          CLEAR     70  63  78 SE5       29.83S
6HR MIN TEMP:  70; 6HR MAX TEMP:  72;

SULPHUR SPRNGS MOCLDY    74  72  93 S9        29.84S
6HR MIN TEMP:  73; 6HR MAX TEMP:  77;

MOUNT PLEASANT   N/A     69  69  98 CALM      29.84F VSB 1
6HR MIN TEMP:  69; 6HR MAX TEMP:  73;

GILMER         CLOUDY    73  73 100 S6        29.85S FOG
MINEOLA        CLOUDY    73  73 100 S3        29.84S
TYLER          CLOUDY    75  72  88 S9        29.83S
6HR MIN TEMP:  73; 6HR MAX TEMP:  76;

LONGVIEW       CLOUDY    74  72  93 S6        29.84S FOG
6HR MIN TEMP:  71; 6HR MAX TEMP:  75;

MARSHALL       MOCLDY    73  71  92 CALM      29.86S
6HR MIN TEMP:  73; 6HR MAX TEMP:  76;

ATHENS         CLOUDY    72  72 100 S5        29.82S
PALESTINE      CLOUDY    74  74 100 SE3       29.84S FOG
HENDERSON      CLOUDY    73  73  99 CALM      29.85S
6HR MIN TEMP:  69; 6HR MAX TEMP:  73;

NACOGDOCHES    CLOUDY    73  72  94 SE3       29.85S
6HR MIN TEMP:  72; 6HR MAX TEMP:  73;

LUFKIN         FOG       77  73  87 CALM      29.83S VSB 1/2
6HR MIN TEMP:  76; 6HR MAX TEMP:  77;

$$

SUPPLEMENTAL OBSERVATIONS (CENTRAL)

CITY           SKY/WX    TMP DP  RH WIND       PRES   REMARKS
LAKE TEXOMA      N/A     72  68  88 S3          N/A
CADDO GRASSLND   N/A     72  66  83 S5          N/A
PAT MAYSE LAKE   N/A     72  68  88 SE12        N/A
GREENVILLE       N/A     72  68  88 S6          N/A
CEDAR HILL       N/A     73  70  88 S8          N/A
ATHENS           N/A     75  70  83 S3          N/A
PALESTINE        N/A     75  72  88 S2          N/A
LAKE LIMESTONE   N/A     73  70  88 S1          N/A
MCGREGOR         N/A     75  70  83 S9          N/A
TEMPLE           N/A     73  68  83 SE6         N/A
$$

SUPPLEMENTAL OBSERVATIONS (WEST)

CITY           SKY/WX    TMP DP  RH WIND       PRES   REMARKS
MILLERS CREEK    N/A     72  59  64 S10         N/A
POSSUM KINGDOM   N/A     73  64  73 S8          N/A
LBJ GRASSLAND    N/A     72  66  83 SE7         N/A



USA.gov is the U.S. government's official web portal to all federal, state and local government web resources and services.